Regional Weather Roundup
Issued by NWS

Home | Current Version | Previous Version | Text Only | Print | Product List | Glossary On
Versions: 1 2 3 4 5 6 7 8 9 10 11 12 13 14 15 16 17 18 19 20 21 22 23 24 25 26 27 28 29 30 31 32 33 34 35 36 37 38 39 40 41 42 43 44 45 46 47 48 49 50
917
ASUS43 KLSX 302057
RWRMO

WEATHER SUMMARY FOR MISSOURI
NATIONAL WEATHER SERVICE SPRINGFIELD MO
400 PM CDT SAT APR 30 2016

NOTE: "FAIR" INDICATES FEW OR NO CLOUDS BELOW 12,000 FEET WITH NO
       SIGNIFICANT WEATHER AND/OR OBSTRUCTIONS TO VISIBILITY.
       CURRENT SKY AND/OR WEATHER CONDITIONS ARE NOT AVAILABLE FOR
       CHILLICOTHE AND FARMINGTON.

MOZ001>031-035>038-043-044-053-054-302200-
...NORTHERN AND WESTERN MISSOURI...

CITY           SKY/WX    TMP DP  RH WIND       PRES   REMARKS
KANSAS CTY INT MOSUNNY   65  51  60 W14       29.73S
LEE`S SUMMIT   SUNNY     67  50  54 SW21G29   29.72S
ST JOSEPH      PTSUNNY   62  51  67 W12       29.73S
CHILLICOTHE      N/A     72  55  55 SW8G17    29.71R

$$
MOZ066>068-077>081-088>096-101>105-302200-
...SOUTHWEST MISSOURI...

CITY           SKY/WX    TMP DP  RH WIND       PRES   REMARKS
SPRINGFIELD    PTSUNNY   73  59  61 SW18G24   29.75R
JOPLIN         SUNNY     70  57  63 W15       29.76S
BRANSON        PTSUNNY   75  63  64 W13       29.75S

$$
MOZ032>034-039>042-045>050-055>058-069>072-302200-
...CENTRAL MISSOURI...

CITY           SKY/WX    TMP DP  RH WIND       PRES   REMARKS
COLUMBIA       NOT AVBL
JEFFERSON CITY MOSUNNY   76  58  53 W15       29.70R
ROLLA          MOSUNNY   74  60  61 S15       29.70F
SEDALIA        SUNNY     72  55  55 W12G24    29.72R
WARRENSBURG    MOSUNNY   68  52  56 SW16G23   29.72S

$$
MOZ051-052-059>065-302200-
...EAST CENTRAL MISSOURI...

CITY           SKY/WX    TMP DP  RH WIND       PRES   REMARKS
ST LOUIS INTL  MOSUNNY   75  62  64 S8        29.74F

$$
MOZ072>076-082>087-097>100-106>115-302200-
...SOUTH CENTRAL AND SOUTHEAST MISSOURI...

CITY           SKY/WX    TMP DP  RH WIND       PRES   REMARKS
CAPE GIRARDEAU CLOUDY    72  62  71 S8        29.77F
POPLAR BLUFF   CLOUDY    73  62  68 S9G16     29.75F
WEST PLAINS    PTSUNNY   72  59  63 CALM      29.75F

$$



USA.gov is the U.S. government's official web portal to all federal, state and local government web resources and services.